www.pogodaiklimat.ru

Погода и климат >> Архив погоды >> Россия >> Якутия >> Мыс Кигилях


ПОГОДА на Мысе Кигилях

  • Прогноз погоды на Мысе Кигилях
  • Монитор погоды на Мысе Кигилях

АРХИВ ПОГОДЫ на Мысе Кигилях

Время (UTC), дата Ветер
(напр.,м/с)
 
Видим.   Явления Облачность Т
(С)
Тd
(С)
f
(%)
Тe
(С)
Тes
(С)
Комфортность P
(гПа)
Po
(гПа)
Тmin
(С)
Tmax
(С)
R
(мм)
R24
(мм)
S
(см)
21 8.09 Ю 8-10
{14}
50 км 10/10 300 м
[Sc]
+5.1 +1.6 78 -1 -1 1001.5 998.5
00 9.09 Ю 10-15
{18}
50 км 10/10 300 м
[Sc]
+5.2 +3.5 89 -1 -1 998.6 995.6 +4.2
03 9.09 Ю 10-14
{17}
10 км слаб. дождь 10/10 600 м
[Sc]
+5.6 +3.9 89 -1 -1 996.2 993.2
06 9.09 Ю 12-16
{17}
4000 м дождь 10/0 300 м
[As op]
+5.7 +4.8 94 -1 -1 993.9 990.9
09 9.09 Ю 7-10
{16}
20 км {дождь} 10/10 300 м
[Sc]
+6.9 +6.2 95 +2 +2 992.4 989.4
12 9.09 ЮЗ 10-12
{14}
20 км {дождь} 10/10 300 м
[Sc]
+6.3 +5.6 95 0 0 991.8 988.8 +6.9 2
15 9.09 З 10-13
{14}
10 км слаб. дождь 10/10 300 м
[Sc]
+6.2 +5.3 94 0 0 991.9 988.9
18 9.09 З 12-15
{17}
20 км в посл. час ливневой дождь 9/9 300 м
[Cb cap]
+5.5 +3.6 88 -1 -1 992.4 989.4
21 9.09 З 12-15
{18}
10 км слаб. ливневой дождь 9/8 300 м
[Cb cap Ac trans]
+4.4 +2.7 89 -3 -3 994.4 991.4
00 10.09 З 12-14
{17}
20 км {ливн. осадки} 10/10 300 м
[Sc]
+4.4 +2.7 89 -3 -3 995.9 992.9 +4.1 2
03 10.09 З 13-16
{19}
20 км 10/10 300 м
[Sc]
+4.8 +2.8 87 -3 -3 998.8 995.8
06 10.09 З 12-15
{21}
20 км 9/9 300 м
[Sc]
+5.0 +0.9 75 -2 -2 1002.4 999.4
09 10.09 З 13-17
{20}
20 км 9/9 300 м
[Sc]
+3.9 -0.7 72 -3 -3 1005.0 1002.0
12 10.09 З 12-15
{17}
20 км 1/1 300 м
[Sc]
+3.7 -0.3 75 -4 -4 1007.6 1004.5 +5.3
15 10.09 З 10-13
{16}
20 км ясно +3.8 -2.1 65 -3 -3 1009.2 1006.1
18 10.09 З 6
{14}
20 км 1/1 300 м
[Sc]
+3.2 -0.3 78 -2 -2 1009.9 1006.8
21 10.09 З 6 20 км 9/9 300 м
[Sc]
+3.7 +1.7 87 -2 -2 1010.4 1007.3
00 11.09 З 8-10
{13}
20 км 8/8 300 м
[Sc]
+4.1 +1.6 84 -2 -2 1010.8 1007.7 +3.0
03 11.09 З 7
{12}
20 км 8/8 300 м
[Sc]
+4.3 +1.2 80 -1 -1 1010.9 1007.8
06 11.09 З 5
{11}
50 км 9/9 300 м
[Sc]
+4.7 +0.6 75 0 0 1010.8 1007.7
09 11.09 З 2 50 км 8/8 300 м
[Sc]
+4.0 0.0 75 +1 +1 1010.6 1007.5
12 11.09 штиль 0 50 км 3/3 300 м
[Sc]
+0.9 -0.2 92 -0 -0 1010.4 1007.3 +5.3
15 11.09 штиль 0 50 км 4/4 300 м
[Sc]
+0.9 +0.1 94 -0 -0 1009.8 1006.7
18 11.09 СВ 1 50 км 8/8 300 м
[Sc]
+0.8 0.0 94 -1 -1 1009.6 1006.5
21 11.09 С 1 50 км 8/8 300 м
[Sc]
+2.0 +0.1 87 0 0 1009.6 1006.5
00 12.09 В 2 50 км 9/9 300 м
[Sc]
+2.5 +0.4 86 -1 -1 1009.8 1006.7 -0.4
03 12.09 штиль 0 50 км 9/9 300 м
[Sc]
+4.8 +0.1 72 +4 +4 1009.8 1006.7
06 12.09 ЮВ 2 50 км ясно +4.5 -2.2 62 +2 +3 1009.7 1006.6
09 12.09 В 2 50 км 6/0
[Ci fib]
+2.8 -1.7 72 0 0 1009.7 1006.6
12 12.09 В 1 50 км 1/0
[Ac trans]
+0.9 -0.8 88 -1 -1 1010.0 1006.9 +5.4
18 12.09 В 4 50 км 4/4 300 м
[Sc]
+3.1 +0.7 84 -2 -2 1009.0 1005.9
21 12.09 В 6
{11}
50 км 9/9 300 м
[Sc]
+3.3 +1.0 85 -2 -2 1008.8 1005.7
00 13.09 В 8-10
{11}
10 км слаб. дождь 10/10 600 м
[Sc]
+3.5 +2.5 93 -3 -3 1007.4 1004.3 +0.4 0.1
03 13.09 В 9-11
{12}
50 км {дождь} 10/0
[Ac und]
+4.6 +2.9 89 -2 -2 1006.2 1003.1
06 13.09 В 10-13
{14}
50 км {дождь} 8/4 300 м
[Sc Ac trans]
+4.9 +3.5 91 -2 -2 1004.6 1001.6
09 13.09 В 11-15
{16}
50 км 10/10 300 м
[Sc]
+4.3 +3.3 93 -3 -3 1004.4 1001.4
12 13.09 В 11-15
{17}
50 км 4/4 300 м
[Sc]
+3.6 +2.9 95 -4 -4 1003.8 1000.8 +4.9 0.1
15 13.09 В 10-13
{16}
50 км 3/3 300 м
[Sc]
+3.5 +2.5 93 -4 -4 1002.7 999.7
18 13.09 СВ 9-13
{14}
50 км 3/3 300 м
[St]
+2.6 +2.1 97 -5 -5 1002.1 999.1
21 13.09 СВ 12-15
{16}
50 км 8/0
[Ac trans Ci fib]
+2.9 +2.1 94 -5 -5 1000.7 997.7
00 14.09 В 11-14
{16}
50 км 9/0
[Ac trans Ci fib]
+3.4 +1.9 90 -4 -4 1000.0 997.0 +2.1
03 14.09 СВ 12-15
{16}
50 км 9/0
[Ac trans Ci fib]
+5.9 +1.1 71 -0 -0 998.8 995.8
06 14.09 В 11-14
{17}
50 км 10/0
[Ac As]
+5.5 +1.5 75 -1 -1 998.7 995.7
09 14.09 СВ 8-10
{15}
50 км 10/0
[Ac As]
+4.2 +2.2 87 -2 -2 998.9 995.9
12 14.09 СВ 6
{15}
20 км 9/6 300 м
[Sc Ac trans]
+3.8 +2.0 88 -2 -2 999.8 996.8 +6.2
15 14.09 СВ 7
{12}
20 км 10/10 300 м
[Sc]
+3.6 +2.3 91 -3 -3 1000.2 997.2
18 14.09 СВ 6
{12}
20 км 10/10 300 м
[Sc]
+3.3 +2.0 91 -3 -3 1000.9 997.9
21 14.09 СВ 6
{11}
20 км 10/10 300 м
[Sc]
+3.8 +3.1 95 -2 -2 1002.1 999.1
00 15.09 СВ 6
{10}
4000 м дымка 10/10 300 м
[St]
+4.0 +3.5 97 -2 -2 1003.6 1000.6 +3.1 0.4
03 15.09 В 4 4000 м дымка 10/10 300 м
[St]
+4.5 +4.0 97 0 0 1004.6 1001.6
06 15.09 ЮВ 3 20 км 10/10 300 м
[Sc]
+5.0 +4.1 94 +1 +1 1006.3 1003.2
09 15.09 В 2 20 км 10/10 300 м
[Sc]
+4.8 +4.3 97 +2 +2 1007.9 1004.8
12 15.09 В 1 20 км 10/10 300 м
[Sc]
+4.8 +4.3 97 +3 +3 1009.6 1006.5 +5.1
15 15.09 В 1 20 км 10/10 300 м
[Sc]
+4.6 +4.1 97 +3 +3 1010.5 1007.4
18 15.09 СВ 1 20 км 10/10 300 м
[Sc]
+4.3 +3.8 97 +3 +3 1011.3 1008.2

 

Местоположение метеостанции Мыс Кигилях (Якутия, Россия): широта 73.33 долгота 139.80 высота над уровнем моря 25 м.

В архиве по умолчанию представлена погода на Мысе Кигилях за последнюю неделю. Архивные данные за месяц целиком и за предыдущие месяцы, начиная с января 2011 года, Вы можете получить, выбрав интересующий диапазон дат из раскрывающегося списка и нажав кнопку "Ввод!".


*Определитесь, кто Вы:
робот инопланетянин человек

Внимание! Время в таблицах - всемирное. Для получения местного времени необходимо прибавить поправку, которая равна 10 ч.

Смотрите также архив погоды в соседних городах и на ближайших метеорологических станциях:

Погода на Проливе Санникова (Якутия, Россия) (152 км)
Погода на Острове Котельном (Якутия, Россия) (303 км)
Погода в Юбилейной (Якутия, Россия) (310 км)
Погода на Мысе Быков (Якутия, Россия) (384 км)
Погода в Усть-Куйге (Якутия, Россия) (398 км)
Погода в Чокурдахе (Якутия, Россия) (408 км)
Погода в Тикси (Якутия, Россия) (413 км)
Погода в Депутатском (Якутия, Россия) (439 км)
Погода на Столб Острове (Якутия, Россия) (453 км)
Погода на Острове Жохова (Якутия, Россия) (492 км)

Пояснения к столбцам:

Ветер - указаны скорость ветра в м/с - средняя за 10 мин, порывы в срок и между сроками (в фигурных скобках) и направление, откуда дует ветер: С - северный, СВ - северо-восточный, В - восточный, ЮВ - юго-восточный, Ю - южный, ЮЗ - юго-западный, З - западный, СЗ - северо-западный.
Видимость - горизонтальная дальность видимости в метрах или километрах. При видимости от 1 до 10 км при отсутствии осадков обычно наблюдается дымка, при ухудшении видимости до 1 км и менее - туман. В сухую погоду видимость может ухудшаться дымом, пылью или мглою.
Явления - указаны атмосферные явления, наблюдавшиеся в срок или в последний час перед сроком; фигурными скобками обозначены явления, наблюдавшиеся между сроками (за 1-3 часа до срока); квадратными скобками обозначены град или гололедные отложения с указанием их диаметра в мм.
Облачность - указаны через наклонную черту общая и нижняя облачность в баллах и высота нижней границы облаков в метрах; квадратными скобками обозначены формы облаков: Ci - перистые, Cs - перисто-слоистые, Cc - перисто-кучевые, Ac - высококучевые, As - высокослоистые, Sc - слоисто-кучевые, Ns - слоисто-дождевые, Cu - кучевые, Cb - кучево-дождевые. Подробнее классификацию облаков см. в Атласе облаков (PDF).
T - Температура воздуха - температура, измеренная на высоте 2 м над землей.
Td - Температура точки росы - температура, при понижении до которой содержащийся в воздухе водяной пар достигнет насыщения.
f - Относительная влажность воздуха - влажноcть воздуха, измеренная на высоте 2 м над землей.
Te - Эффективная температура - температура, которую ощущает одетый по сезону человек в тени. Характеристика душности погоды. При расчете учитывается влияние влажности воздуха и скорости ветра на теплоощущения человека.
Tes - Эффективная температура на солнце - температура, которую ощущает человек, с поправкой на солнечный нагрев. Характеристика знойности погоды. Зависит от высоты солнца над горизонтом, облачности и скорости ветра. Ночью, в пасмурную погоду, а также при ветре 12 м/с и более поправка равна нулю.
P - Атмосферное давление - приведенное к уровню моря атмосферное давление.
Po - Атмосферное давление - измеренное на уровне метеостанции атмосферное давление.
Tmin - Минимальная температура - минимум температуры воздуха на высоте 2 м над землей.
Tmax - Максимальная температура - максимум температуры воздуха на высоте 2 м над землей.
R - Количество осадков - Количество выпавших осадков за период времени, мм. При наведении курсора мыши на число - период времени, за который выпало указанное количество осадков.
R24 - Количество осадков - Количество выпавших осадков за 24 часа, мм.
S - Снежный покров - Высота снежного покрова, см. При наведении курсора мыши на число - состояние снежного покрова и степень покрытия местности в баллах.